Starlink 4073

operational
NORAD ID: 52672 Int'l Des: 2022-053 Owner: SPXS Country: US Constellation: starlink
LEOCIRCULAR

Über Starlink 4073

Beschreibung wird geladen...

Live-Position

3D-Globus wird geladen...

Nächste Überflüge

Höhenverlauf

Altitude vs Time

uPlot chart will show altitude changes over time

Zweizeiliger Elementsatz

1 52672U 22053S 25257.32334927 -.00004173 00000-0 -24415-3 0 9994
2 52672 53.2157 225.8600 0001062 97.6155 262.4958 15.08853499184418
Epoch: 14. Sept. 2025 • Age: 25 hours

Aktueller Status

Höhe 550.5 km
Geschwindigkeit 7.59 km/s
Subsatellitenpunkt -32.72°S, 62.87°E
Startdatum 18. Mai 2022
Alter 3.3 years
Typ internet

Technische Details

Klassifizierung Payload
Masse 297.00 kg
Trockenmasse 275.00 kg
Gesamtmasse 297.00 kg
Länge 0.20 m
Durchmesser 2.80 m
Spannweite 9.00 m
Form Box + pan
Hersteller SPXS
Bus-Typ Starlink
Phasenstatus In Orbit
Besitzer/Staat SPXS/US

Große Konstellationen

Loading constellations...